CX2SA-13 Weather Reports


Display with metric or nautical units.
time (UTC)temp
F
wind
direction
speed
MPH
gust
MPH
rain 1hr
in
rain 24hr
in
rain mn
in
humidity
%
barometer
mb
20260506091444 71 90 2.0 5.0 0.00 0.00 0.00 97 1008.8
20260506085944 71 112 3.0 0.0 0.00 0.00 0.00 97 1009.1
20260506084445 71 112 2.0 4.0 0.00 0.00 0.00 97 1009.1
20260506082944 71 112 5.0 0.0 0.00 0.00 0.00 97 1009.1
20260506081445 71 112 5.0 0.0 0.00 0.00 0.00 97 1009.1
20260506072945 71 112 3.0 4.0 0.00 0.00 0.00 97 1009.1
20260506071446 71 67 4.0 5.0 0.00 0.00 0.00 97 1009.4
20260506061444 72 0.0 0.0 0.00 0.00 0.00 96 1009.4
20260506044445 71 360 2.0 0.0 0.00 0.00 0.00 98 1009.4
20260506042946 71 337 2.0 0.0 0.00 0.00 0.00 98 1009.4
20260506041444 71 22 0.0 3.0 0.00 0.00 0.00 98 1009.4
20260506035945 71 22 2.0 0.0 0.00 0.00 0.00 98 1009.8
20260506034443 71 0.0 0.0 0.00 0.00 0.00 98 1009.8
20260506032944 71 315 0.0 2.0 0.00 0.00 0.00 98 1009.8
20260506031445 70 90 0.0 2.0 0.00 0.00 0.00 98 1009.8
20260506025944 70 0.0 0.0 0.00 0.00 0.67 98 1009.4
20260506024445 70 0.0 0.0 0.00 0.00 0.67 98 1009.4
20260506022945 70 0.0 0.0 0.00 0.00 0.67 98 1009.8
20260506021444 71 247 2.0 0.0 0.00 0.00 0.67 97 1009.4
20260506015945 71 315 0.0 1.0 0.00 0.00 0.67 97 1009.4
20260506014446 71 45 1.0 2.0 0.00 0.00 0.67 97 1009.4
20260506012944 71 90 0.0 2.0 0.00 0.00 0.67 97 1009.4
20260506011445 71 45 0.0 2.0 0.00 0.00 0.67 97 1009.4
20260506010013 71 90 0.0 2.0 0.00 0.00 0.67 97 1009.4
20260506004444 71 112 2.0 3.0 0.00 0.00 0.67 97 1009.4
20260506002945 71 112 1.0 2.0 0.00 0.00 0.67 97 1008.8
20260506001444 71 112 4.0 5.0 0.00 0.00 0.67 97 1008.8
20260505235945 71 112 2.0 0.0 0.00 0.00 0.67 97 1008.8
20260505234445 72 0.0 0.0 0.00 0.00 0.67 97 1008.8
20260505232944 72 112 0.0 1.0 0.00 0.00 0.67 97 1008.8
20260505231445 72 112 2.0 0.0 0.00 0.00 0.67 96 1008.8
20260505225943 72 112 2.0 0.0 0.00 0.00 0.67 96 1008.8
20260505224444 72 247 0.0 2.0 0.00 0.00 0.67 96 1008.8
20260505222945 72 247 5.0 9.0 0.00 0.00 0.64 95 1008.4
20260505221443 73 315 2.0 0.0 0.00 0.00 0.55 94 1008.4
20260505215944 73 90 6.0 9.0 0.00 0.00 0.54 94 1008.1
20260505214445 73 90 2.0 5.0 0.00 0.00 0.52 94 1008.1
20260505212944 73 112 7.0 9.0 0.00 0.00 0.52 94 1008.1
20260505211445 72 112 5.0 6.0 0.00 0.00 0.52 94 1008.4
20260505205945 72 67 5.0 7.0 0.00 0.00 0.52 95 1008.4
20260505204444 73 90 6.0 0.0 0.00 0.00 0.52 95 1008.8
20260505202945 74 22 2.0 0.0 0.00 0.00 0.52 95 1009.1
20260505201445 74 90 3.0 0.0 0.00 0.00 0.52 94 1008.8
20260505195944 74 337 6.0 12.0 0.00 0.00 0.37 94 1009.4
20260505194445 83 360 2.0 0.0 0.00 0.00 0.00 76 1008.8
20260505192943 84 45 4.0 6.0 0.00 0.00 0.00 74 1008.4
20260505191444 85 45 5.0 0.0 0.00 0.00 0.00 72 1008.4
20260505185945 86 22 6.0 7.0 0.00 0.00 0.00 71 1008.4
20260505184444 88 292 5.0 7.0 0.00 0.00 0.00 68 1008.8
20260505182944 89 90 5.0 6.0 0.00 0.00 0.00 68 1008.4
20260505181445 88 112 5.0 6.0 0.00 0.00 0.00 69 1008.8
20260505175944 87 45 4.0 7.0 0.00 0.00 0.00 71 1008.8
20260505174445 88 67 7.0 8.0 0.00 0.00 0.00 69 1008.8
20260505172945 87 45 5.0 8.0 0.00 0.00 0.00 72 1009.1
20260505171444 87 90 9.0 0.0 0.00 0.00 0.00 71 1009.4
20260505165945 87 45 4.0 7.0 0.00 0.00 0.00 71 1009.4
20260505164443 88 45 5.0 6.0 0.00 0.00 0.00 68 1009.4
20260505162944 87 360 6.0 7.0 0.00 0.00 0.00 70 1010.5
20260505161445 88 22 4.0 6.0 0.00 0.00 0.00 69 1010.5
20260505152945 86 67 2.0 5.0 0.00 0.00 0.00 73 1011.1
20260505151444 85 22 7.0 0.0 0.00 0.00 0.00 74 1011.1
20260505124445 72 45 6.0 0.0 0.00 0.00 0.00 92 1011.5
20260505122944 71 90 4.0 6.0 0.00 0.00 0.00 93 1011.5
20260505121445 71 45 4.0 5.0 0.00 0.00 0.00 93 1011.1
20260505115946 70 90 2.0 4.0 0.00 0.00 0.00 94 1011.1
20260505114444 69 90 2.0 4.0 0.00 0.00 0.00 94 1011.1
20260505112945 68 45 2.0 4.0 0.00 0.00 0.00 94 1010.8
20260505111444 67 67 3.0 4.0 0.00 0.00 0.00 95 1010.8
20260505101445 66 112 2.0 0.0 0.00 0.00 0.00 94 1010.5
20260505095945 66 112 2.0 0.0 0.00 0.00 0.00 94 1010.1
20260505094444 66 112 3.0 0.0 0.00 0.00 0.00 94 1010.1
20260505092945 66 90 2.0 0.0 0.00 0.00 0.00 94 1009.8